Powrót do katalogu

CZ-6A DEB

AktywnySSO
NORAD 54325·DEBRIS·🇨🇳 China

Wystrzelony Nov 11, 2022 z Taiyuan Satellite Launch Center

Loading…

Następne Przeloty (najbliższe 24 godziny)

TLE

ŚwieżeSource: Space-Track

Epoka: Sep 14, 2026, 06:48 UTC

1 54325U 22151BU  26257.28399873  .00000166  00000-0  11070-3 0  9996
2 54325  98.8106 257.8468 0033911  76.3786 284.1159 14.13457138197438

Śledź CZ-6A DEB w czasie rzeczywistym z AllMySat

Download on the App Store